{"data":{"norad_id":41622,"epoch":"2026-09-20T03:57:42.378048Z","epoch_age_seconds":54637,"freshness":"FRESH","line1":"1 41622U 16041A   26263.16507382 -.00000153  00000+0  00000+0 0  9996","line2":"2 41622   2.0104 303.8290 0204011 260.7923 108.9010  1.00272140 38047","mean_motion":1.0027214,"eccentricity":0.0204011,"inclination_deg":2.0104,"raan_deg":303.829,"arg_perigee_deg":260.7923,"mean_anomaly_deg":108.901,"bstar":0,"rev_number":3804,"period_min":1436.0918197218,"perigee_km":34926.290559183,"apogee_km":36646.700325012,"semimajor_km":42164.632442097,"source":"CELESTRAK","updated_at":"2026-09-20T09:00:35.226303Z"}}